Regional Weather Roundup
Issued by NWS

Home | Current Version | Previous Version | Graphics & Text | Print | Product List | Glossary On
Versions: 1 2 3 4 5 6 7 8 9 10 11 12 13 14 15 16 17 18 19 20 21 22 23 24 25 26 27 28 29 30 31 32 33 34 35 36 37 38 39 40 41 42 43 44 45 46 47 48 49 50
000
ASUS43 KDMX 241306
RWRIA

WEATHER ROUNDUP FOR IOWA
NATIONAL WEATHER SERVICE DES MOINES IA
800 AM CDT MON JUL 24 2017

NOTE: "FAIR" INDICATES FEW OR NO CLOUDS BELOW 12,000 FEET WITH NO
SIGNIFICANT WEATHER AND/OR OBSTRUCTIONS TO VISIBILITY.

* - THESE STATIONS ARE NOT NWS STATIONS...THUS NOT UNDER NWS
QUALITY CONTROL.  THEY ALSO DO NOT REPORT WEATHER SUCH
AS PRECIPITATION OR FOG.

IAZ001>003-012>014-020>022-031>034-043>046-241400-
   NORTHWEST IOWA

CITY           SKY/WX    TMP DP  RH WIND       PRES   REMARKS
CARROLL *      SUNNY     63  63 100 CALM      30.06R
CHEROKEE *     SUNNY     60  60 100 CALM      30.06S
DENISON *      SUNNY     61  61 100 CALM      30.07S
ORANGE CITY *  SUNNY     63  61  94 E5        30.04F
SHELDON *      SUNNY     63  61  94 SE5       30.04F
SIOUX CITY     SUNNY     64  60  87 E5        30.04F
SPENCER        SUNNY     62  59  90 CALM      30.07S
STORM LAKE *   SUNNY     63  61  94 SE7       30.07R
$$

IAZ055>058-069>071-079>083-090>094-241400-
   SOUTHWEST IOWA

CITY           SKY/WX    TMP DP  RH WIND       PRES   REMARKS
ATLANTIC *     SUNNY     63  61  94 NE5       30.05S
AUDUBON *      SUNNY     64  61  88 CALM      30.06S
CLARINDA *     SUNNY     64  64 100 CALM      30.06R
COUNCIL BLFS * SUNNY     66  64  94 E7        30.04S
CRESTON *      SUNNY     66  63  88 NE6       30.06R
HARLAN  *      SUNNY     63  63 100 CALM      30.09R
LAMONI         SUNNY     66  62  87 NE6       30.03S
RED OAK *      SUNNY     64  63  94 NE5       30.05R
SHENANDOAH *   SUNNY     64  63  94 CALM      30.05R
$$

IAZ047>049-059>061-072>074-084-241400-
   CENTRAL IOWA

CITY           SKY/WX    TMP DP  RH WIND       PRES   REMARKS
AMES           SUNNY     65  62  90 NE3       30.05R
ANKENY *       SUNNY     64  61  88 NE6       30.06R
BOONE *        SUNNY     63  61  94 NE6       30.04S
CHARITON *     SUNNY     66  63  88 NE5       30.03R
DES MOINES     MOSUNNY   68  60  75 NE7       30.03R
GRINNELL*      SUNNY     64  60  88 NE6       30.05R
KNOXVILLE *    MOSUNNY   66  61  82 N5        30.02S
MARSHALLTOWN   SUNNY     63  61  93 NE6       30.04R
NEWTON *       SUNNY     64  61  88 NE8       30.04S
PELLA *        SUNNY     65  60  83 CALM      30.04S
$$

IAZ004>006-015-016-023>025-035-036-241400-
   NORTH CENTRAL IOWA

CITY           SKY/WX    TMP DP  RH WIND       PRES   REMARKS
ALGONA *       SUNNY     63  61  94 CALM      30.08R
CLARION *      SUNNY     63  63 100 NE7       30.07R
ESTHERVILLE    SUNNY     61  60  97 CALM      30.06S
FORT DODGE *   SUNNY     63  57  82 E5        30.07S
MASON CITY     SUNNY     62  59  90 N3        30.09R
FOREST CITY *    N/A     63  61  94 CALM      30.07R
WEBSTER CITY * SUNNY     63  61  94 MISG      30.04S
IOWA FALLS *     N/A     64  60  88 NE6       30.07R
$$

IAZ007>011-017>019-026>030-037>042-050>054-066-241400-
   NORTHEAST IOWA

CITY           SKY/WX    TMP DP  RH WIND       PRES   REMARKS
CEDAR RAPIDS   CLOUDY    64  64 100 NE8       30.02R
CHARLES CITY * SUNNY     63  63 100 NE3       30.07R
DECORAH *      SUNNY     61  59  94 E7        30.06R
DUBUQUE        MOSUNNY   63  58  83 NE8       30.04R
MONTICELLO *   CLOUDY    64  61  88 NE7       30.03R
OELWEIN *        N/A    N/A N/A N/A MISG        N/A
WATERLOO       SUNNY     64  59  83 NE5       30.04R
$$

IAZ064-065-067-068-078-241400-
   EAST CENTRAL IOWA

CITY           SKY/WX    TMP DP  RH WIND       PRES   REMARKS
DAVENPORT      CLOUDY    68  65  90 E8        30.03R
IOWA CITY      CLOUDY    68  63  84 NE7       30.02R
MT. PLEASANT * SUNNY     67  64  89 N5        30.01R
MUSCATINE *    SUNNY     68  64  88 N5        30.01R
QUAD CITIES    CLOUDY    70  64  81 E8        30.00R
$$

IAZ062-063-075>077-085>089-095>099-241400-
   SOUTHEAST IOWA

CITY           SKY/WX    TMP DP  RH WIND       PRES   REMARKS
BURLINGTON     SUNNY     69  64  84 N5        30.00R
FAIRFIELD *    SUNNY     66  61  82 N8        30.01R
FORT MADISON * SUNNY     66  64  94 N5        30.01R
KEOKUK *       SUNNY     68  64  88 N5        29.99S
OSKALOOSA *      N/A     64  61  88 NE5       30.03R
CENTERVILLE *    N/A     66  63  88 CALM      30.05R
OTTUMWA        SUNNY     66  62  87 N6        30.02R
WASHINGTON *   SUNNY     66  64  94 NE6       30.02R
$$

ABBREVIATIONS USED IN REMARKS
   TC - TEMPERATURES IN CELSIUS
  WCI - WIND CHILL INDEX
   HX - HEAT INDEX
  VSB - VISIBILITY
$$





USA.gov is the U.S. government's official web portal to all federal, state and local government web resources and services.